Other Surface Observations
Issued by NWS

Home | Current Version | Previous Version | Text Only | Print | Product List | Glossary On
Versions: 1 2 3 4 5 6 7 8 9 10 11 12 13 14 15 16 17 18 19 20 21 22 23 24 25 26 27 28 29 30 31 32 33 34 35 36 37 38 39 40 41 42 43 44 45 46 47 48 49 50
000
SXUS52 KTAE 250918
OSOTAE
OSOTAE
North Florida/South Alabama/Southwest Georgia Weather Roundup
National Weather Service Tallahassee Florida
500 AM EDT MON MAY 25 2015

Note: "fair" indicates few or no clouds below 12,000 feet with no
significant weather and/or obstructions to visibility.

!FLZ017-115-028-034-025-251000
...North Florida...

CITY           SKY/WX    TMP DP  RH WIND       PRES   REMARKS
TALLAHASSEE    PTCLDY    75  68  78 E10       30.17S
APALACHICOLA   CLOUDY    82  73  74 SE14G23   30.13S
PERRY          CLEAR     73  70  93 E6        30.18R
CROSS CITY       N/A     72  70  93 CALM      30.16F
JACKSONVILLE   PTCLDY    72  71  97 E5        30.19S
$$

!FLZ112-006-005-002-011-251000
...Florida Panhandle...

CITY           SKY/WX    TMP DP  RH WIND       PRES   REMARKS
MARIANNA       CLEAR     73  68  84 E6        30.15S
BONIFAY          N/A     72  65  78 E3        30.15F
PANAMA CITY NW FAIR      71  67  87 NE3       30.12F
TYNDALL AFB    CLEAR     75  71  88 E6        30.13S
TYND DRONE APT NOT AVBL
DE FUNIAK SPR  FAIR      70  67  90 MISG      30.13F
EGLIN AFB      RAIN      77  72  83 E9        30.11R
DESTIN         CLOUDY    76  73  91 SE12G21   30.10S
HURLBURT       MOCLDY    79  73  82 SE14G23   30.09R
CRESTVIEW      MOCLDY    73  68  84 E5        30.14R
PENSACOLA      CLOUDY    78  74  87 SE14      30.09S
$$

!ALZ063-066-251000
...South Alabama...

CITY           SKY/WX    TMP DP  RH WIND       PRES   REMARKS
DOTHAN         CLEAR     72  64  76 E9        30.19F
OZARK CAIRNS   CLEAR     72  65  77 E6        30.15S
FT RUCKER HELI CLEAR     73  64  73 SE5       30.14S
RUCKER HELI 3  FAIR      71  65  81 SE8       30.16S
RUCKER HELI 2  FAIR      72  67  84 E7        30.15F
FLORALA APT    FAIR      70  66  87 CALM      30.15S
ANDALUSIA      MOCLDY    74  66  76 SE8       30.14S
TROY           CLEAR     70  63  78 SE6       30.16S
EUFALA         FAIR      70  64  81 SE7       30.17F
MOBILE         CLOUDY    77  73  87 SE10      30.08S
$$

!GAZ120>161-251000
...Southwest and South Central Georgia...

CITY           SKY/WX    TMP DP  RH WIND       PRES   REMARKS
THOMASVILLE    FAIR      70  70 100 SE5       30.20R
BAINBRIDGE     CLEAR     73  70  88 E5        30.18S
MOODY AFB      CLEAR     67  66  94 NE5       30.19S
VALDOSTA       NOT AVBL
MOULTRIE       CLEAR     70  68  94 E3        30.20S
BLAKELY        CLEAR     70  68  94 CALM      30.18F
ALBANY         PTCLDY    70  66  87 E6        30.22R
TIFTON         MOCLDY    69  67  94 E5        30.21S
FITZGERALD     CLOUDY    71  68  91 CALM      30.24S
CORDELE        PTSUNNY   71  68  90 CALM      30.23S
AMERICUS       CLOUDY    68  64  88 E5        30.23S
HOMERVILLE     FAIR      68  68 100 CALM      30.21S
$$

!GMZ750-755-770-775-251000
...Coastal and Buoy Obs...

STATION/POSITION TIME  TEMP    WIND        PRES    VSBY  WAVE
                       AIR SEA DIR/SP/G                  HT/PER
                 (UTC) (F)     (DEG/KT/KT) (MB)    (MI)  (FT/S)
KEATON BEACH     0900   72      80/  9/ 10 1021.4S
CEDAR KEY        0900   76     110/ 11/ 14 1021.7F
C TOWER          0900   79     130/ 20/ 23 1019.9F
APALACHICOLA BUO 0850   80 80  130/ 17/ 21 1019.5R         5/ 6
PANAMA CITY BUOY 0850   80 80  130/ 16/ 17 1019.0F         4/ 6
MOBILE BUOY      0850   76 78  160/ 17/ 19 1017.5F         6/ 7
ORANGE BCH AL BU 0850   80 80  140/ 16/ 17 1017.7R         5/ 7
$$



USA.gov is the U.S. government's official web portal to all federal, state and local government web resources and services.